Location: Lecco
(45.8566°N, 9.3977°E)
Time: 04:19:18
(UTC+02:00)

Transit 4A - Pass Details

Date: 15 August 2020
Orbit: 863 x 982 km, 66.8° (Epoch: 23 September)

Event Time Altitude Azimuth Distance (km) Brightness Sun altitude
Rises 09:57:32 0° 219° (SW) 3,488 10.7 35.8°
Reaches altitude 10° 10:00:00 10° 222° (SW) 2,568 10.1 36.2°
Maximum altitude 10:05:57 69° 306° (NW) 981 8.4 37.2°
Drops below altitude 10° 10:12:09 10° 30° (NNE) 2,666 10.5 38.2°
Sets 10:14:45 0° 33° (NNE) 3,632 11.1 38.6°
